Temp
-24 -21 -20 -19 -18 -17 -17 -16 -17 -17 -16 -14 -15 -15 -15 -15 -14 -14 -14 -14 -15 -15 -14 -14 -14 -14 -14 -15 -15 -15 -15 -15 -15 -16 -16 -16 -15 -16 -16 -16 -17 -17 -18 -19 -20 -21 -22 -24 -25 -25 -27 -28 -28 -29
-22 -20 -19 -18 -18 -17 -17 -16 -17 -17 -16 -16 -16 -16 -15 -15 -14 -14 -14 -14 -14 -15 -15 -14 -14 -15 -15 -15 -15 -15 -15 -16 -16 -15 -15 -16 -16 -16 -17 -17 -18 -19 -19 -20 -21 -22 -24 -25 -26 -27 -27 -28 -28 -28
-22 -20 -19 -18 -18 -18 -17 -17 -17 -18 -17 -15 -16 -15 -15 -15 -14 -15 -14 -15 -15 -15 -15 -15 -15 -15 -15 -15 -15 -16 -16 -16 -16 -16 -16 -17 -17 -17 -18 -18 -19 -20 -20 -22 -23 -25 -26 -27 -27 -27 -27 -27 -28 -28
-20 -20 -19 -18 -18 -17 -17 -17 -18 -18 -16 -16 -16 -15 -15 -15 -15 -15 -15 -15 -15 -15 -15 -15 -15 -15 -15 -16 -16 -16 -16 -16 -17 -17 -17 -17 -18 -18 -19 -20 -21 -21 -22 -23 -25 -26 -27 -27 -27 -27 -27 -27 -27 -27
-19 -20 -19 -18 -17 -17 -17 -17 -17 -17 -17 -16 -16 -16 -15 -15 -15 -15 -15 -15 -15 -15 -15 -15 -15 -16 -16 -16 -16 -16 -16 -17 -17 -17 -18 -18 -19 -20 -21 -22 -22 -23 -24 -25 -26 -26 -27 -27 -27 -27 -27 -27 -27 -27
-19 -19 -18 -17 -17 -17 -17 -17 -18 -17 -16 -16 -16 -16 -16 -16 -16 -16 -16 -16 -16 -16 -16 -16 -16 -16 -17 -17 -17 -17 -17 -18 -18 -18 -19 -20 -21 -21 -22 -24 -25 -24 -26 -26 -26 -27 -27 -27 -27 -27 -27 -27 -27 -28
-18 -18 -18 -17 -17 -17 -17 -17 -18 -18 -17 -17 -16 -17 -17 -18 -18 -17 -17 -16 -16 -16 -16 -16 -17 -17 -17 -17 -17 -18 -18 -19 -19 -20 -21 -21 -22 -23 -24 -25 -25 -26 -26 -27 -27 -27 -27 -27 -27 -28 -28 -28 -28 -28
-18 -18 -17 -17 -18 -18 -18 -18 -17 -18 -18 -18 -18 -18 -18 -17 -17 -17 -17 -17 -17 -17 -17 -17 -17 -17 -17 -18 -19 -19 -20 -20 -21 -21 -22 -23 -24 -25 -25 -25 -26 -27 -27 -27 -27 -27 -28 -28 -28 -28 -28 -28 -28 -28
-18 -18 -18 -17 -18 -18 -18 -17 -18 -17 -18 -18 -18 -18 -17 -17 -18 -18 -18 -17 -17 -17 -17 -17 -18 -18 -18 -19 -20 -20 -21 -22 -23 -23 -23 -24 -25 -26 -26 -26 -27 -27 -27 -28 -28 -28 -28 -28 -28 -28 -28 -28 -28 -29
-18 -18 -18 -18 -18 -18 -18 -17 -17 -17 -18 -17 -17 -17 -17 -17 -17 -17 -17 -18 -18 -18 -18 -19 -19 -19 -20 -21 -21 -22 -22 -23 -23 -24 -25 -24 -26 -27 -27 -27 -27 -28 -28 -28 -28 -28 -28 -29 -29 -29 -29 -29 -29 -30
-19 -18 -18 -18 -18 -18 -17 -17 -17 -17 -17 -17 -17 -18 -18 -18 -17 -17 -18 -19 -19 -19 -20 -20 -20 -20 -21 -22 -22 -23 -23 -24 -24 -25 -25 -25 -26 -26 -27 -28 -28 -28 -28 -28 -29 -29 -29 -30 -30 -30 -30 -30 -30 -30
-19 -19 -18 -18 -18 -17 -17 -17 -17 -18 -18 -19 -18 -18 -19 -19 -19 -20 -20 -20 -20 -20 -20 -21 -21 -22 -22 -23 -23 -23 -23 -24 -24 -24 -25 -25 -26 -27 -28 -28 -29 -29 -30 -30 -30 -30 -30 -30 -30 -30 -31 -31 -31 -31
-20 -20 -19 -19 -19 -19 -19 -19 -18 -18 -18 -18 -19 -20 -20 -20 -20 -20 -20 -20 -20 -21 -21 -22 -22 -22 -23 -23 -23 -23 -23 -24 -24 -25 -26 -26 -27 -27 -27 -28 -29 -30 -30 -31 -31 -31 -31 -31 -31 -31 -31 -31 -31 -31
-19 -19 -19 -19 -19 -19 -18 -18 -19 -20 -20 -20 -20 -20 -20 -19 -20 -20 -21 -21 -21 -21 -21 -22 -22 -22 -23 -23 -24 -24 -24 -24 -25 -26 -26 -26 -27 -27 -28 -29 -30 -31 -31 -31 -31 -32 -32 -32 -32 -32 -32 -31 -32 -32
-19 -19 -19 -19 -20 -20 -21 -21 -21 -21 -21 -20 -20 -20 -21 -21 -21 -21 -21 -21 -22 -22 -22 -22 -23 -23 -23 -24 -24 -24 -25 -25 -26 -26 -26 -27 -28 -28 -29 -30 -31 -31 -31 -32 -32 -32 -32 -32 -33 -33 -33 -33 -33 -33
-21 -21 -21 -20 -20 -20 -20 -20 -21 -20 -20 -20 -20 -20 -20 -20 -21 -21 -21 -21 -22 -22 -22 -22 -23 -23 -24 -24 -25 -25 -25 -26 -26 -27 -27 -28 -28 -29 -30 -31 -31 -32 -33 -33 -33 -33 -33 -34 -34 -34 -34 -34 -34 -34
-21 -21 -21 -21 -21 -21 -21 -21 -20 -20 -20 -20 -21 -21 -21 -21 -21 -21 -21 -21 -22 -22 -22 -22 -23 -24 -24 -24 -25 -25 -26 -26 -27 -27 -27 -28 -28 -29 -30 -31 -32 -33 -33 -33 -34 -34 -34 -34 -34 -34 -34 -34 -34 -35
-21 -21 -21 -20 -20 -20 -20 -20 -21 -21 -21 -21 -21 -21 -21 -21 -21 -21 -21 -22 -22 -22 -23 -23 -24 -24 -25 -25 -25 -26 -26 -26 -27 -27 -28 -28 -29 -30 -30 -31 -32 -33 -33 -33 -34 -34 -34 -34 -35 -35 -35 -35 -35 -35
-20 -20 -20 -21 -21 -20 -20 -20 -20 -20 -20 -20 -20 -21 -21 -21 -22 -22 -22 -22 -23 -23 -23 -23 -24 -24 -25 -25 -25 -26 -26 -27 -27 -27 -28 -28 -29 -30 -30 -31 -32 -33 -33 -34 -34 -35 -35 -35 -35 -35 -35 -35 -35 -35
-20 -20 -20 -20 -20 -20 -20 -20 -20 -20 -20 -21 -21 -21 -21 -21 -21 -22 -22 -23 -23 -23 -23 -24 -24 -24 -25 -25 -25 -26 -26 -27 -27 -27 -28 -28 -29 -30 -31 -32 -32 -33 -34 -34 -34 -35 -35 -35 -35 -35 -35 -35 -35 -36
-20 -20 -20 -20 -20 -20 -20 -20 -20 -20 -20 -20 -21 -21 -21 -21 -22 -22 -22 -23 -23 -23 -23 -24 -24 -24 -25 -25 -26 -26 -27 -27 -27 -27 -28 -28 -29 -30 -31 -32 -33 -33 -34 -34 -35 -35 -35 -35 -36 -36 -36 -36 -36 -36
-20 -20 -20 -19 -19 -20 -20 -20 -20 -20 -20 -20 -20 -21 -21 -21 -21 -22 -22 -23 -23 -23 -24 -24 -24 -25 -25 -25 -26 -26 -27 -27 -28 -27 -28 -28 -29 -30 -31 -32 -33 -34 -35 -35 -35 -36 -36 -36 -36 -36 -36 -36 -36 -37
-19 -19 -19 -19 -19 -19 -19 -19 -20 -20 -20 -20 -20 -20 -21 -21 -21 -22 -22 -23 -23 -23 -24 -24 -24 -25 -25 -26 -26 -27 -27 -28 -28 -27 -28 -28 -29 -30 -31 -32 -33 -34 -35 -35 -35 -35 -35 -35 -35 -36 -36 -36 -37 -37
-19 -19 -19 -19 -19 -19 -19 -19 -20 -20 -20 -20 -20 -21 -21 -21 -22 -22 -22 -23 -23 -23 -24 -24 -25 -25 -25 -26 -27 -27 -27 -28 -28 -28 -28 -28 -29 -30 -31 -32 -33 -34 -34 -35 -35 -35 -35 -35 -36 -36 -36 -37 -37 -38
-20 -20 -20 -20 -20 -20 -20 -20 -20 -20 -20 -20 -21 -21 -21 -22 -22 -22 -23 -23 -23 -24 -24 -25 -25 -25 -26 -26 -27 -27 -28 -28 -28 -28 -28 -28 -29 -30 -31 -32 -33 -34 -35 -35 -35 -35 -35 -36 -36 -36 -37 -37 -38 -38
-20 -20 -20 -20 -20 -20 -20 -20 -20 -21 -21 -21 -21 -22 -22 -22 -22 -23 -23 -24 -24 -25 -25 -25 -25 -26 -26 -26 -27 -27 -27 -28 -28 -28 -28 -28 -29 -30 -32 -33 -34 -34 -35 -35 -35 -35 -36 -36 -36 -37 -37 -38 -38 -38
-20 -20 -20 -20 -20 -20 -20 -21 -21 -21 -21 -22 -22 -22 -23 -23 -23 -24 -24 -24 -25 -25 -25 -25 -26 -26 -26 -26 -27 -27 -27 -28 -28 -28 -28 -28 -29 -30 -32 -33 -34 -34 -35 -35 -35 -36 -36 -36 -37 -37 -37 -38 -38 -38
-20 -19 -19 -19 -20 -20 -21 -21 -21 -22 -22 -23 -23 -23 -23 -24 -24 -24 -25 -25 -25 -25 -25 -25 -26 -26 -26 -27 -27 -27 -27 -28 -28 -28 -28 -28 -28 -30 -31 -33 -34 -34 -35 -35 -35 -36 -36 -36 -37 -37 -37 -38 -38 -38
-20 -20 -20 -20 -21 -21 -21 -21 -21 -22 -22 -22 -23 -23 -24 -24 -24 -24 -25 -25 -25 -25 -25 -25 -26 -26 -26 -27 -27 -27 -27 -28 -28 -28 -28 -28 -28 -29 -31 -32 -33 -34 -35 -35 -35 -36 -36 -36 -37 -37 -37 -37 -38 -38
-21 -21 -21 -21 -21 -22 -22 -22 -22 -22 -22 -23 -23 -23 -24 -24 -24 -24 -24 -24 -25 -25 -25 -26 -26 -26 -26 -27 -27 -27 -28 -28 -28 -28 -28 -28 -28 -29 -30 -31 -33 -34 -34 -35 -35 -35 -36 -36 -36 -36 -36 -37 -37 -37
-21 -21 -21 -22 -22 -22 -22 -22 -22 -23 -23 -23 -23 -24 -24 -24 -24 -24 -25 -25 -25 -25 -25 -26 -26 -26 -26 -27 -27 -27 -28 -28 -28 -28 -29 -28 -28 -29 -30 -31 -32 -33 -34 -34 -34 -35 -35 -35 -36 -36 -36 -37 -37 -37
-21 -21 -21 -20 -21 -21 -22 -22 -22 -22 -22 -23 -23 -24 -25 -25 -25 -25 -25 -25 -25 -25 -26 -26 -26 -26 -27 -27 -27 -27 -28 -28 -28 -29 -29 -29 -29 -29 -29 -30 -31 -32 -33 -33 -34 -34 -34 -35 -35 -35 -36 -36 -36 -37
-21 -21 -21 -22 -22 -22 -22 -23 -22 -22 -22 -23 -23 -23 -23 -24 -25 -25 -26 -25 -25 -26 -26 -26 -26 -26 -27 -27 -27 -27 -28 -28 -28 -29 -29 -29 -29 -29 -29 -29 -30 -31 -32 -33 -33 -34 -34 -34 -34 -35 -35 -35 -36 -36
Height
5310 5331 5357 5379 5401 5419 5439 5452 5468 5486 5505 5518 5530 5542 5552 5559 5565 5570 5576 5579 5585 5586 5588 5592 5595 5596 5597 5597 5598 5598 5596 5594 5591 5589 5587 5584 5580 5576 5570 5564 5557 5552 5545 5538 5529 5519 5515 5507 5501 5496 5489 5483 5478 5472
5310 5333 5358 5379 5399 5419 5436 5451 5469 5484 5497 5512 5524 5533 5545 5552 5558 5561 5567 5572 5575 5577 5581 5583 5585 5586 5586 5586 5587 5585 5584 5581 5579 5576 5574 5570 5565 5560 5555 5550 5542 5539 5532 5527 5520 5512 5505 5501 5496 5491 5487 5483 5476 5472
5312 5338 5360 5381 5401 5420 5436 5453 5468 5481 5497 5510 5519 5526 5537 5541 5548 5555 5559 5564 5568 5570 5570 5573 5574 5575 5576 5576 5576 5575 5573 5571 5568 5565 5560 5557 5551 5547 5542 5537 5530 5525 5519 5513 5508 5502 5499 5496 5492 5490 5486 5479 5475 5471
5319 5346 5364 5384 5403 5421 5437 5451 5468 5482 5494 5505 5513 5523 5529 5535 5541 5547 5551 5555 5558 5559 5559 5562 5562 5564 5565 5566 5565 5564 5560 5558 5555 5552 5547 5542 5538 5534 5527 5522 5517 5512 5507 5506 5502 5498 5493 5491 5488 5481 5479 5476 5473 5469
5333 5353 5370 5388 5405 5421 5437 5452 5467 5479 5491 5501 5508 5516 5523 5529 5534 5537 5542 5546 5548 5552 5551 5552 5553 5555 5556 5556 5554 5551 5548 5545 5542 5538 5533 5531 5527 5523 5516 5509 5504 5503 5500 5498 5497 5494 5492 5486 5480 5476 5473 5471 5469 5465
5343 5360 5374 5390 5409 5423 5437 5452 5465 5478 5487 5495 5503 5510 5517 5521 5526 5531 5535 5538 5540 5542 5543 5544 5545 5546 5546 5544 5542 5539 5535 5532 5530 5526 5522 5518 5515 5512 5508 5502 5497 5497 5494 5490 5490 5487 5485 5480 5475 5471 5468 5466 5463 5460
5352 5366 5381 5398 5412 5426 5440 5455 5464 5474 5484 5490 5498 5504 5509 5514 5518 5524 5528 5530 5532 5534 5535 5536 5536 5537 5535 5532 5530 5527 5524 5523 5519 5515 5512 5508 5504 5502 5499 5495 5492 5489 5487 5485 5482 5479 5476 5472 5469 5465 5462 5459 5456 5454
5360 5374 5389 5403 5416 5430 5442 5454 5465 5475 5481 5487 5494 5499 5503 5508 5512 5516 5518 5521 5522 5523 5526 5527 5527 5527 5525 5523 5521 5517 5516 5512 5507 5504 5501 5499 5496 5492 5490 5485 5485 5482 5480 5475 5471 5468 5466 5464 5461 5458 5454 5451 5448 5445
5370 5385 5398 5410 5421 5431 5443 5456 5464 5473 5481 5487 5491 5496 5500 5504 5505 5509 5511 5513 5514 5518 5519 5518 5517 5516 5517 5515 5511 5509 5507 5504 5501 5498 5494 5491 5488 5485 5481 5479 5476 5471 5468 5464 5458 5456 5454 5453 5450 5447 5443 5439 5437 5434
5382 5393 5404 5415 5425 5434 5445 5453 5463 5472 5477 5484 5490 5495 5496 5499 5502 5504 5505 5506 5507 5510 5511 5509 5509 5508 5509 5505 5500 5502 5498 5497 5494 5493 5488 5484 5481 5476 5472 5469 5465 5460 5456 5452 5448 5445 5442 5439 5435 5432 5429 5427 5424 5422
5390 5401 5409 5418 5427 5439 5447 5455 5460 5469 5476 5480 5484 5489 5491 5493 5495 5497 5498 5501 5500 5501 5502 5501 5500 5499 5498 5498 5497 5496 5492 5489 5488 5487 5483 5480 5473 5465 5463 5458 5454 5451 5447 5442 5437 5432 5428 5425 5422 5419 5416 5414 5411 5408
5401 5409 5415 5421 5429 5437 5446 5456 5464 5470 5474 5479 5482 5482 5484 5486 5487 5493 5492 5493 5495 5496 5496 5494 5494 5492 5492 5492 5491 5488 5487 5484 5482 5481 5475 5471 5465 5456 5452 5448 5445 5441 5437 5432 5426 5421 5417 5413 5410 5406 5402 5399 5395 5393
5405 5412 5419 5427 5434 5442 5450 5457 5461 5465 5470 5472 5474 5477 5479 5482 5485 5487 5489 5487 5489 5490 5489 5489 5489 5488 5488 5488 5487 5485 5483 5479 5475 5471 5466 5462 5455 5448 5444 5439 5434 5429 5425 5420 5415 5410 5405 5400 5396 5391 5387 5382 5378 5375
5413 5418 5424 5431 5437 5443 5449 5455 5460 5463 5467 5471 5473 5476 5479 5478 5481 5482 5481 5484 5487 5487 5486 5486 5486 5487 5486 5485 5481 5478 5475 5472 5468 5464 5458 5453 5447 5440 5433 5427 5421 5415 5409 5404 5399 5394 5389 5383 5379 5374 5368 5363 5358 5353
5416 5421 5427 5432 5438 5444 5449 5455 5459 5463 5466 5469 5471 5472 5473 5473 5476 5478 5482 5481 5482 5482 5479 5479 5482 5482 5479 5477 5475 5472 5470 5465 5461 5456 5450 5443 5436 5428 5421 5414 5407 5400 5394 5387 5381 5375 5369 5364 5359 5354 5348 5342 5337 5333
5423 5428 5432 5437 5442 5447 5451 5455 5459 5462 5464 5466 5468 5469 5471 5474 5476 5477 5478 5478 5478 5477 5478 5480 5479 5477 5475 5474 5472 5467 5465 5460 5455 5447 5440 5433 5425 5416 5408 5400 5391 5383 5376 5368 5361 5355 5348 5342 5336 5331 5326 5320 5315 5309
5428 5432 5437 5441 5445 5449 5453 5457 5460 5462 5465 5467 5469 5470 5472 5473 5475 5476 5478 5478 5478 5479 5479 5477 5475 5474 5472 5469 5466 5463 5458 5452 5446 5438 5430 5422 5413 5404 5394 5385 5375 5366 5357 5348 5340 5333 5326 5319 5312 5306 5300 5295 5289 5283
5432 5436 5440 5443 5447 5450 5454 5456 5459 5461 5463 5465 5468 5471 5474 5476 5477 5477 5477 5477 5477 5476 5475 5473 5471 5469 5466 5463 5459 5455 5450 5444 5437 5430 5421 5412 5402 5391 5380 5369 5358 5349 5339 5330 5320 5312 5304 5297 5290 5284 5277 5271 5266 5260
5436 5439 5442 5445 5448 5452 5455 5458 5461 5463 5466 5468 5471 5472 5473 5474 5475 5475 5474 5474 5473 5472 5470 5468 5466 5463 5459 5456 5453 5448 5443 5437 5431 5422 5412 5401 5390 5379 5366 5354 5343 5331 5320 5309 5299 5291 5283 5276 5270 5265 5260 5255 5250 5245
5441 5444 5447 5450 5453 5456 5458 5461 5463 5465 5467 5469 5470 5471 5471 5472 5472 5472 5471 5470 5469 5467 5465 5463 5460 5458 5454 5451 5447 5442 5437 5430 5423 5414 5403 5391 5378 5364 5351 5338 5325 5311 5300 5292 5284 5276 5270 5263 5257 5251 5246 5240 5236 5231
5445 5448 5450 5453 5455 5458 5460 5462 5463 5465 5466 5467 5468 5469 5470 5470 5470 5469 5468 5467 5465 5463 5461 5458 5456 5453 5449 5445 5441 5436 5430 5423 5415 5405 5393 5379 5364 5350 5335 5321 5308 5298 5288 5279 5270 5263 5257 5251 5245 5240 5235 5230 5225 5220
5447 5449 5452 5454 5456 5458 5460 5462 5463 5464 5465 5466 5467 5467 5467 5467 5466 5466 5465 5463 5461 5460 5457 5454 5451 5448 5444 5440 5435 5429 5423 5415 5406 5395 5382 5367 5352 5338 5323 5309 5298 5287 5277 5269 5261 5254 5247 5242 5237 5232 5228 5223 5217 5212
5450 5451 5453 5455 5456 5458 5461 5461 5462 5462 5463 5464 5464 5464 5464 5463 5463 5462 5461 5459 5458 5455 5453 5450 5447 5443 5439 5434 5429 5422 5415 5407 5398 5386 5373 5358 5343 5328 5313 5301 5289 5279 5269 5261 5254 5248 5242 5237 5232 5228 5223 5218 5213 5207
5451 5452 5454 5455 5457 5458 5459 5460 5460 5461 5461 5461 5461 5460 5460 5459 5458 5457 5456 5454 5453 5450 5448 5445 5441 5437 5433 5428 5422 5416 5409 5400 5390 5379 5366 5352 5337 5321 5307 5295 5284 5275 5266 5259 5252 5246 5240 5235 5230 5225 5221 5216 5210 5206
5452 5453 5454 5454 5455 5456 5457 5457 5457 5458 5457 5457 5456 5456 5455 5454 5453 5452 5451 5449 5447 5445 5442 5439 5435 5431 5427 5422 5416 5409 5402 5394 5385 5374 5360 5346 5331 5317 5304 5293 5282 5273 5264 5257 5251 5245 5240 5234 5230 5225 5221 5216 5211 5206
5449 5450 5452 5452 5453 5453 5453 5454 5454 5453 5453 5452 5452 5451 5449 5449 5448 5447 5446 5444 5442 5439 5437 5433 5429 5425 5421 5416 5410 5404 5397 5390 5381 5370 5357 5343 5329 5316 5303 5292 5282 5273 5265 5258 5252 5246 5241 5236 5231 5227 5222 5218 5213 5207
5446 5446 5447 5447 5448 5449 5449 5449 5448 5448 5447 5447 5446 5445 5445 5443 5442 5441 5439 5438 5435 5433 5430 5427 5423 5419 5415 5410 5405 5399 5393 5385 5376 5366 5354 5341 5328 5315 5304 5294 5285 5276 5267 5261 5254 5249 5244 5239 5234 5229 5224 5219 5215 5210
5440 5441 5441 5442 5442 5442 5442 5442 5441 5440 5441 5441 5440 5439 5438 5437 5436 5435 5433 5431 5429 5426 5423 5420 5416 5413 5409 5405 5400 5394 5388 5381 5372 5363 5353 5341 5328 5316 5305 5296 5288 5280 5273 5265 5258 5252 5247 5242 5236 5231 5227 5223 5218 5213
5434 5434 5435 5435 5435 5435 5434 5434 5433 5433 5434 5433 5432 5431 5430 5428 5428 5427 5425 5423 5422 5419 5417 5414 5410 5407 5403 5399 5394 5389 5383 5376 5369 5361 5352 5342 5331 5319 5307 5298 5290 5283 5276 5270 5264 5257 5251 5246 5240 5235 5231 5226 5220 5215
5425 5426 5426 5427 5427 5426 5427 5427 5426 5426 5425 5425 5425 5423 5422 5420 5419 5418 5418 5416 5415 5412 5410 5407 5404 5400 5397 5393 5389 5384 5378 5373 5366 5359 5350 5340 5330 5319 5308 5299 5291 5285 5278 5273 5267 5261 5256 5250 5245 5239 5233 5227 5222 5217
5416 5417 5417 5417 5416 5416 5417 5416 5416 5415 5415 5415 5415 5415 5413 5412 5411 5410 5410 5409 5407 5405 5402 5400 5397 5394 5390 5386 5382 5378 5373 5368 5362 5355 5347 5339 5330 5320 5310 5301 5293 5286 5281 5275 5270 5264 5258 5253 5247 5242 5236 5231 5226 5221
5407 5408 5408 5408 5407 5406 5406 5406 5406 5407 5405 5404 5403 5402 5402 5402 5402 5402 5401 5400 5399 5397 5395 5392 5389 5386 5383 5380 5376 5372 5367 5362 5357 5352 5345 5338 5330 5322 5313 5303 5295 5288 5282 5277 5272 5267 5261 5256 5251 5245 5240 5235 5229 5224
5400 5400 5400 5400 5400 5399 5399 5400 5399 5398 5397 5396 5395 5393 5392 5392 5392 5393 5392 5391 5390 5389 5386 5384 5381 5379 5376 5373 5369 5366 5362 5358 5353 5348 5343 5337 5330 5323 5315 5307 5298 5291 5283 5278 5273 5268 5263 5258 5254 5249 5244 5239 5234 5229
Wind_Speed
47 50 66 70 72 70 67 61 61 70 74 73 59 56 42 36 37 40 40 26 23 25 33 48 47 49 48 45 42 42 46 47 50 51 50 51 53 56 60 62 63 62 60 57 60 55 51 39 32 26 19 16 16 20
55 58 66 70 66 63 60 59 58 57 58 54 56 55 49 40 37 39 40 39 37 31 37 46 51 47 45 44 46 48 46 46 45 45 49 53 55 57 59 57 56 54 56 52 53 47 39 25 19 18 14 15 16 15
58 58 63 63 60 55 55 55 48 47 41 47 34 31 30 33 42 41 37 32 33 38 48 50 47 39 44 46 45 44 41 42 47 49 51 53 55 55 53 52 52 52 51 47 40 32 22 19 17 15 16 17 19 17
59 61 62 58 54 49 49 50 53 40 44 40 42 38 38 32 29 29 34 39 41 44 44 44 45 44 42 42 39 39 43 46 48 50 50 50 51 52 48 46 46 48 42 39 26 23 18 19 19 19 21 22 22 22
60 59 59 54 47 47 49 51 39 35 38 37 37 33 30 31 34 39 38 37 38 42 44 43 42 41 38 37 40 44 47 49 49 47 47 48 47 46 44 42 41 40 34 29 23 24 22 24 25 25 23 24 25 23
61 59 52 50 48 46 47 47 37 39 35 26 29 29 30 26 31 34 35 33 37 38 39 39 40 38 38 40 43 44 43 42 45 45 44 44 44 42 37 33 35 32 27 29 27 27 25 25 24 25 26 25 24 23
59 53 48 47 46 46 48 44 40 40 34 33 37 26 25 13 10 11 17 25 29 35 38 37 36 39 40 40 39 38 38 40 41 40 41 41 40 36 31 31 32 32 30 31 30 29 28 27 26 27 26 26 26 26
59 54 56 51 45 49 51 45 44 41 37 37 34 27 31 30 20 15 19 26 30 34 32 33 34 35 35 34 34 35 35 36 38 39 40 37 35 33 32 37 35 35 35 35 34 33 34 34 36 36 35 34 32 33
59 57 52 46 47 46 49 41 44 44 33 27 27 32 23 21 22 25 26 29 29 28 31 29 29 29 32 33 32 33 34 34 35 33 32 32 33 33 38 37 39 40 39 38 40 41 42 42 43 42 41 40 40 40
55 51 47 43 39 38 37 32 38 39 30 25 32 31 29 24 28 28 28 24 23 27 29 25 27 27 28 28 29 33 31 30 31 31 31 31 31 34 37 38 39 39 40 40 41 44 46 47 47 43 42 42 42 43
41 48 41 40 40 40 42 38 35 36 39 39 36 33 26 24 25 26 21 21 22 21 20 22 24 26 28 27 27 27 27 29 30 31 31 31 28 34 35 35 37 39 41 43 43 42 38 36 36 37 38 41 44 45
39 41 42 41 42 39 36 36 38 41 34 26 22 22 20 17 15 17 17 16 18 19 21 23 23 21 21 23 25 27 28 30 31 32 32 34 36 37 38 37 37 36 35 34 36 41 40 41 43 44 41 38 41 43
26 25 25 28 26 28 26 19 15 16 20 22 18 17 16 15 14 13 14 17 20 20 18 18 18 20 22 23 24 26 28 30 31 33 35 37 39 41 43 43 41 41 40 39 40 43 45 47 50 53 54 55 60 61
26 23 23 24 24 24 24 22 22 20 17 17 16 14 11 10 14 15 13 12 13 13 14 16 17 18 20 23 24 27 29 30 32 34 37 40 43 44 46 46 46 46 46 46 45 46 49 53 57 60 62 64 64 64
28 28 26 25 24 22 21 20 18 15 13 11 7 5 3 3 5 7 7 7 9 11 12 14 17 18 20 23 24 28 30 32 34 36 39 41 45 47 49 50 51 52 52 52 52 52 53 55 56 58 60 61 63 65
30 28 27 25 23 21 18 15 12 9 7 4 2 0 2 3 4 5 7 8 10 11 12 14 16 18 20 22 24 27 29 30 33 37 41 45 49 52 54 55 55 54 55 55 56 56 57 58 60 61 62 64 65 67
25 24 22 20 18 17 15 13 11 10 9 8 6 5 2 1 3 4 5 6 8 10 12 14 15 17 19 20 22 24 26 31 36 41 46 51 55 59 60 61 59 58 58 58 58 58 58 59 60 62 63 64 65 66
21 20 19 18 17 16 14 13 12 10 9 8 7 6 5 5 5 5 6 6 7 8 10 11 13 16 17 19 22 26 30 34 39 44 50 56 60 64 65 65 62 59 58 58 59 60 61 61 60 60 60 59 57 54
20 20 19 18 17 17 17 17 17 17 15 14 13 11 8 6 4 2 2 3 5 8 10 12 14 16 19 21 24 28 32 36 41 47 54 59 64 66 65 62 61 63 62 60 57 54 51 48 46 44 43 43 44 45
25 25 25 24 24 22 20 18 16 15 12 10 8 6 4 2 0 1 3 5 7 10 12 14 16 18 21 24 27 30 34 38 44 50 57 62 65 66 64 65 65 60 53 47 46 46 46 45 44 43 43 41 38 38
24 22 21 19 17 16 14 13 11 9 7 6 4 3 2 0 1 3 5 7 9 11 14 15 18 20 23 25 28 31 35 40 46 52 59 65 66 66 67 64 55 50 50 47 44 41 40 39 36 35 32 32 34 36
18 16 15 14 13 12 11 9 8 7 5 4 2 1 1 3 4 6 7 9 10 11 13 16 18 21 24 26 29 32 36 41 47 54 62 67 67 67 64 56 52 48 43 41 39 37 34 31 28 27 28 29 31 32
15 14 13 12 10 8 7 5 5 3 3 2 2 4 5 6 7 9 9 10 11 13 15 17 20 23 26 28 31 34 38 43 49 56 63 67 67 66 59 53 49 45 41 38 34 30 27 27 26 26 27 27 28 28
11 10 9 8 7 6 4 4 3 4 5 5 7 8 9 10 11 12 12 14 15 16 18 20 21 24 27 30 32 35 39 44 49 56 63 67 67 63 55 50 45 41 37 32 30 29 27 26 25 25 25 26 27 27
8 7 6 6 5 5 5 6 7 8 9 10 11 12 13 14 14 14 15 17 18 19 20 22 23 25 27 30 33 35 39 43 49 55 62 66 65 60 52 47 42 38 34 31 31 30 29 27 26 25 24 24 25 26
9 10 10 10 10 10 11 11 12 12 13 13 14 15 17 17 18 16 17 18 19 22 23 24 25 27 29 31 33 35 39 43 47 53 60 64 63 57 48 43 41 39 35 32 30 30 29 27 25 24 23 23 24 27
11 11 11 13 15 15 16 16 18 19 19 19 20 20 20 21 22 21 21 22 22 24 25 25 27 28 30 31 33 35 38 41 45 50 57 62 62 56 46 41 39 39 38 35 31 29 28 26 25 24 25 26 26 27
16 16 14 14 15 16 17 21 24 25 24 23 24 25 24 24 26 25 25 25 25 26 27 27 28 29 30 32 33 34 37 40 43 47 53 59 61 56 47 40 36 35 36 36 35 33 30 28 27 26 25 25 25 25
20 20 20 21 22 24 25 27 28 28 28 27 27 28 28 31 30 29 28 29 28 28 29 29 29 30 31 32 33 33 35 37 40 43 48 53 58 57 50 41 36 34 33 33 33 33 33 31 29 27 25 24 24 24
28 28 28 28 29 30 31 30 29 29 30 29 28 29 31 33 33 32 31 30 29 29 29 30 30 30 30 31 32 32 33 34 37 40 44 49 54 56 51 43 36 34 33 32 32 32 32 31 30 30 31 31 30 28
28 29 29 30 31 32 31 31 31 31 31 31 30 30 30 32 33 33 32 29 28 29 29 30 31 30 30 31 31 31 31 32 34 36 39 44 49 53 52 47 39 33 31 31 31 31 31 32 31 30 30 29 29 28
21 18 17 19 22 24 25 25 21 18 22 24 26 29 31 33 31 29 29 27 28 28 30 30 30 30 30 31 31 30 30 29 31 33 35 39 43 48 51 48 44 36 31 29 29 29 29 30 30 31 31 30 29 28
27 26 24 23 23 22 23 25 28 30 30 28 26 23 24 26 27 24 26 27 27 27 29 29 27 27 28 29 30 29 28 28 28 30 32 34 38 42 46 48 46 42 36 30 28 28 27 27 27 27 28 28 29 29
Wind_Direction
167 182 187 186 192 196 200 199 214 220 224 220 230 234 229 235 225 228 230 246 251 268 273 253 254 256 263 269 265 267 271 275 277 279 282 284 285 285 287 289 292 294 297 298 300 302 304 301 306 319 334 359 7 359
163 173 183 184 189 193 197 196 206 214 221 224 236 244 234 225 226 230 245 247 256 279 272 248 254 264 264 263 268 270 274 280 281 282 283 283 285 288 291 291 293 297 298 300 302 303 303 308 327 336 337 336 344 346
159 174 181 181 185 189 192 193 193 210 218 190 199 212 213 227 235 242 247 251 252 256 239 248 256 260 262 270 272 274 278 285 286 284 284 288 290 291 292 295 297 299 301 301 300 296 296 312 315 313 310 324 328 329
156 172 176 176 182 184 184 176 186 197 197 210 207 212 212 223 226 229 229 233 240 241 246 247 250 255 267 273 274 276 283 284 284 286 289 289 289 291 295 297 301 300 299 297 289 289 294 296 303 305 305 305 307 314
158 166 169 169 175 178 176 179 180 183 188 198 198 197 210 219 221 218 220 225 233 240 246 252 261 269 268 273 277 280 283 285 286 286 287 289 294 299 303 304 298 297 297 295 288 288 286 284 296 302 304 295 293 299
152 153 153 162 172 173 172 173 180 174 171 178 207 195 206 211 222 227 223 230 235 242 256 262 263 266 272 276 280 282 283 283 285 289 293 295 299 303 304 299 295 301 293 291 285 280 282 285 288 292 292 291 289 290
145 145 151 158 164 168 170 171 183 186 193 202 190 173 174 186 202 228 240 247 257 259 263 264 270 272 276 280 280 281 283 286 291 296 298 302 305 302 301 297 294 295 292 285 283 282 284 285 287 288 285 284 286 287
133 138 146 145 153 162 162 172 185 195 208 212 219 227 247 252 264 281 264 257 257 259 265 274 277 277 278 277 279 284 289 294 296 299 302 303 303 301 301 295 297 290 283 280 283 286 285 283 284 284 284 284 282 282
141 145 150 151 154 165 169 181 186 180 193 211 223 223 243 263 274 275 270 264 259 263 266 267 270 275 278 281 287 292 296 298 299 299 301 303 303 299 295 295 289 287 288 287 288 286 283 281 279 280 281 282 280 280
136 142 147 162 167 163 165 179 182 186 192 216 229 239 247 261 261 264 258 258 261 260 260 264 272 277 285 289 292 294 296 299 302 304 305 305 303 295 293 295 295 294 294 292 287 283 280 277 277 277 276 275 276 277
141 151 156 159 157 164 174 187 197 211 216 225 235 246 253 252 250 250 254 249 252 257 267 276 284 290 294 295 294 297 302 305 306 307 306 306 304 297 300 299 300 298 294 290 288 285 281 282 282 283 283 283 282 279
150 159 163 171 180 182 184 193 206 219 226 227 234 237 238 235 224 227 238 251 263 274 281 285 291 295 297 300 305 307 308 307 306 305 309 307 306 312 311 310 307 304 302 299 293 285 278 272 273 275 274 274 279 280
154 162 165 172 179 187 197 188 193 208 221 225 215 196 199 215 228 250 269 283 284 286 292 294 299 304 306 304 304 304 302 304 309 312 312 313 313 311 310 310 309 305 302 295 290 286 283 281 280 280 274 272 280 285
155 156 156 164 170 180 191 198 200 188 179 183 194 212 232 261 274 283 291 292 298 300 301 302 304 304 303 304 307 309 310 310 312 313 312 311 310 310 311 312 310 308 304 300 294 288 283 279 278 280 283 283 284 285
153 153 156 160 162 160 158 158 159 159 177 194 217 242 275 312 318 321 314 314 318 316 317 319 308 307 308 309 313 309 309 314 313 311 311 312 313 313 313 311 309 307 304 301 298 294 290 287 285 283 282 281 281 282
131 133 136 138 143 147 152 158 168 184 187 166 142 55 317 320 327 326 324 319 314 312 311 304 301 306 308 308 307 308 308 307 312 315 317 317 318 317 316 315 312 309 305 302 298 295 292 290 288 286 285 284 284 284
137 139 144 148 153 155 154 152 144 142 144 145 138 132 112 332 321 312 306 302 299 296 292 294 300 301 302 305 301 306 314 320 324 325 324 324 322 321 319 317 313 310 307 303 301 299 297 294 292 291 289 288 287 286
141 137 135 133 134 136 138 137 135 133 130 128 129 138 155 172 197 219 237 253 267 281 291 297 300 303 309 312 317 322 326 329 330 328 326 324 323 321 319 316 314 312 310 308 305 302 300 297 295 294 293 292 292 292
130 130 129 129 130 131 132 132 133 133 134 140 143 146 153 163 182 218 264 291 298 303 307 314 319 318 320 324 323 326 328 329 330 328 327 325 323 321 319 318 317 315 312 309 307 306 305 304 304 303 302 300 299 298
133 132 133 132 130 128 127 128 127 130 133 139 135 141 142 151 212 309 314 311 310 312 318 323 326 327 327 326 326 327 328 329 332 331 327 325 325 325 323 323 320 318 317 316 313 310 309 307 306 305 303 302 301 301
131 131 131 130 131 129 127 133 133 131 135 137 133 136 159 174 317 326 327 325 323 324 328 330 331 330 329 329 329 328 329 331 332 332 331 331 331 329 328 327 325 323 321 319 317 317 315 314 313 312 310 308 308 308
131 130 131 129 131 132 133 131 137 137 142 150 153 170 291 304 317 320 327 325 328 331 331 332 332 331 331 331 330 330 332 333 335 336 336 336 335 333 333 332 330 328 326 325 323 323 323 324 324 324 324 322 321 322
133 133 133 134 134 135 141 138 147 154 177 209 261 281 291 301 308 310 314 316 320 324 329 330 331 331 331 333 334 333 332 335 338 340 340 340 340 339 339 337 336 335 337 338 339 340 340 339 337 336 334 334 336 339
138 140 143 146 150 158 176 193 218 245 264 272 279 283 289 292 297 302 307 311 316 319 324 326 326 328 332 333 332 332 334 338 341 343 344 345 345 344 344 344 344 344 347 348 350 349 348 348 347 347 348 349 350 353
173 178 189 192 206 217 227 241 249 258 263 272 276 280 284 288 292 298 303 305 309 312 317 319 322 325 329 332 333 334 336 340 343 346 347 349 349 349 349 350 352 354 355 355 356 356 356 356 358 359 359 0 0 359
217 224 228 232 235 242 250 254 260 264 268 272 274 276 282 285 289 295 294 298 303 305 309 313 318 322 325 330 333 335 337 341 345 349 350 351 353 353 355 357 360 3 4 3 2 2 2 3 4 6 8 7 8 8
240 245 250 250 250 251 258 263 265 265 267 270 272 275 278 281 286 290 293 295 297 300 306 310 314 319 323 326 330 335 338 341 346 351 353 354 356 357 359 2 7 10 12 10 7 6 7 8 9 10 10 12 12 11
250 257 260 255 250 256 260 262 263 266 269 268 269 273 277 278 279 284 287 289 293 297 304 310 313 317 322 325 328 332 337 342 347 352 355 356 357 359 1 4 9 12 15 17 17 16 13 11 11 12 12 11 10 10
257 260 261 258 256 258 263 266 269 272 274 276 274 272 272 276 281 283 285 289 294 298 303 308 312 317 322 325 327 330 336 341 346 351 356 358 358 1 2 3 6 11 13 15 16 18 20 20 18 14 11 10 10 12
266 268 268 268 267 269 273 277 280 282 283 286 285 285 282 279 280 284 286 291 297 299 302 305 309 313 318 322 325 328 333 339 344 350 355 359 360 2 4 4 4 8 10 11 12 14 14 13 13 14 16 17 16 14
273 273 274 274 273 273 273 276 277 281 283 284 282 279 278 281 283 285 287 292 295 295 298 302 305 309 313 318 323 326 330 337 343 349 355 359 1 2 4 6 5 4 6 8 10 13 14 13 13 12 11 12 12 13
272 274 281 285 283 283 279 273 273 279 291 294 285 277 273 274 278 283 285 287 289 293 297 301 305 308 311 315 320 323 327 333 340 346 352 358 2 3 4 6 7 4 2 3 5 8 11 13 14 15 16 15 14 13
274 275 276 277 275 275 274 279 285 290 290 288 286 282 277 275 278 278 276 280 288 295 299 301 303 306 310 314 317 320 323 327 334 340 348 355 359 2 4 6 8 8 5 0 358 359 2 6 9 12 14 17 18 20